Location: Firdgum
(53.2488°N, 5.5615°E)
Time: 05:33:50
(UTC+00:00)

Timation 1 Rocket - Pass Details

Date: 08 December 2019
Orbit: 897 x 910 km, 70.0° (Epoch: 18 January)

Event Time Altitude Azimuth Distance (km) Brightness Sun altitude
Rises 06:08:14 0° 213° (SSW) 3,505 7.3 -12.5°
Reaches altitude 10° 06:10:43 10° 214° (SW) 2,569 6.6 -12.1°
Maximum altitude 06:16:40 85° 303° (WNW) 911 4.3 -11.3°
Drops below altitude 10° 06:22:41 10° 33° (NNE) 2,591 6.9 -10.5°
Sets 06:25:11 0° 35° (NE) 3,537 7.6 -10.1°
